Regional Weather Roundup
Issued by NWS

Home | Current Version | Previous Version | Text Only | Print | Product List | Glossary Off
Versions: 1 2 3 4 5 6 7 8 9 10 11 12 13 14 15 16 17 18 19 20 21 22 23 24 25 26 27 28 29 30 31 32 33 34 35 36 37 38 39 40 41 42 43 44 45 46 47 48 49 50

000
ASUS45 KBOU 031207
RWRCO

WEATHER ROUNDUP FOR COLORADO
NATIONAL WEATHER SERVICE DENVER/BOULDER CO
600 AM MDT SUN MAY 03 2015

NOTE: "FAIR" INDICATES FEW OR NO CLOUDS BELOW 12000 FEET WITH NO
SIGNIFICANT WEATHER AND/OR OBSTRUCTIONS TO VISIBILITY.

COZ001>005-013-030-031-031300-
...NORTHWEST COLORADO...

CITY           SKY/WX    TMP DP  RH WIND       PRES   REMARKS
CRAIG          MOCLDY    37  34  89 CALM      30.01F
HAYDEN         PTCLDY    39  32  75 E10       30.02F
MEEKER         CLOUDY    42  36  79 CALM      30.01S
MOUNT WERNER   NOT AVBL
STEAMBOAT SPGS PTCLDY    35  32  89 CALM      30.05S
WALDEN         CLEAR     30  27  86 SE6       30.09S WCI  24
$$

COZ006>008-011-031300-
...WEST CENTRAL VALLEYS...

CITY           SKY/WX    TMP DP  RH WIND       PRES   REMARKS
GRAND JUNCTION PTCLDY    52  39  61 CALM      29.92S
MONTROSE       PTCLDY    54  33  45 SE9       30.01S
EAGLE          PTCLDY    39  36  87 SE6       30.11S
RIFLE          PTCLDY    45  37  73 E5        30.00F
DELTA          PTCLDY    55  32  41 NE9       29.98S
NUCLA          PTCLDY    52  30  43 E10       30.05S
$$

COZ017>023-064>068-031300-
...SOUTHWEST COLORADO...

CITY           SKY/WX    TMP DP  RH WIND       PRES   REMARKS
DURANGO        CLOUDY    43  34  70 CALM      30.09S
CORTEZ         CLOUDY    47  36  65 CALM      30.04S
PAGOSA SPRINGS MOCLDY    42  33  70 CALM      30.15R
TELLURIDE      CLOUDY    44  28  52 SE6       30.19S
WOLF CREEK PAS NOT AVBL
$$

COZ009-010-012-014-032>034-037-058>063-031300-
...CENTRAL COLORADO...

CITY           SKY/WX    TMP DP  RH WIND       PRES   REMARKS
ASPEN          PTCLDY    37  30  75 VRB3      30.09F
BUENA VISTA    NOT AVBL
COPPER MTN     PTCLDY    37  25  60 SW14G21   30.28S
BERTHOUD PASS  FAIR      30  23  74 W25G36    30.27F WCI  16
COTTONWOOD PAS MOCLDY    43  30  61 W3        30.20S
GUNNISON       MOCLDY    34  27  75 CALM      30.18R
KREMMLING      CLEAR     32  30  93 SE3       30.12S
LEADVILLE      PTCLDY    27  26  96 N5        30.19F WCI  22
MONARCH PASS   PTCLDY    32  27  80 W18       30.39R WCI  20
SALIDA         MOCLDY    43  36  75 NW9       30.20S
SUNLIGHT       CLOUDY    39  28  65 CALM      30.26R
WILKERSON PASS PTCLDY    34  30  86 W7        30.26S WCI  28
$$

COZ069>075-031300-
...SAN LUIS VALLEY/SANGRE DE CRISTO MOUNTAINS...

CITY           SKY/WX    TMP DP  RH WIND       PRES   REMARKS
ALAMOSA        PTCLDY    33  30  88 SE3       30.13R
LA VETA PASS   CLOUDY    39  30  70 MISG      30.20S
SAGUACHE       PTCLDY    37  32  81 N7        30.16R
$$

COZ035-036-038>040-031300-
...NORTHERN COLORADO FRONT RANGE...

CITY           SKY/WX    TMP DP  RH WIND       PRES   REMARKS
DENVER INTL AP PTCLDY    51  37  58 SW13      29.92S
DMNS CITY PARK   N/A     52  36  55 SW3       29.92F
AURORA         MOCLDY    50  37  60 S10       29.94F
FRONT RANGE AP NOT AVBL
ERIE MUNI ARPT MOCLDY    45  40  81 CALM      29.91F
BOULDER MUN AP MOCLDY    59  32  36 CALM      29.91S
CENTENNIAL     MOCLDY    55  34  45 W12       29.95S
BROOMFIELD     MOCLDY    55  34  44 CALM      29.93F
FORT COLLINS   PTCLDY    46  39  76 SE5       29.91S
LONGMONT       PTCLDY    48  41  76 NW3       29.92F
$$

COZ041-046-047-076>085-087-088-031300-
...PIKES PEAK/PALMER DIVIDE AND SOUTHERN FOOTHILLS...

CITY           SKY/WX    TMP DP  RH WIND       PRES   REMARKS
COLO. SPRINGS  MOCLDY    47  37  68 N9        29.98F
A. F. ACADEMY  PTCLDY    55  31  40 VRB6      29.99F
ELLICOTT         N/A    N/A N/A N/A CALM      29.96F
FALCON         PTCLDY    51  32  48 W12       30.01F
FORT CARSON    PTCLDY    48  38  68 N9        29.95F
LIMON          CLEAR     41  37  86 NW7       29.92F
MONUMENT HILL  MOCLDY    48  32  53 SW10      30.00F
TRINIDAD       PTCLDY    47  34  60 SW17      29.98S
$$

COZ042>045-048>051-090-091-031300-
...NORTHEAST COLORADO...

CITY           SKY/WX    TMP DP  RH WIND       PRES   REMARKS
GREELEY ARPT   CLEAR     41  36  81 N6        29.90S
AKRON          CLEAR     50  42  74 W14       29.87F
BURLINGTON     CLEAR     50  42  74 W9        29.86R
WRAY           CLEAR     47  44  88 W7        29.83S
STERLING       CLEAR     45  43  93 S7        29.84S
HOLYOKE        NOT AVBL
FORT MORGAN    CLEAR     46 -15   7 W7        29.88S
$$

COZ086-089-092>099-031300-
...SOUTHEAST COLORADO...

CITY           SKY/WX    TMP DP  RH WIND       PRES   REMARKS
PUEBLO         CLEAR     50  41  71 W6        29.91S
LA JUNTA       PTCLDY    46  41  82 MISG      29.89R
LAMAR          MOCLDY    46  44  93 SW7       29.85F
SPRINGFIELD      N/A     53  40  61 W9        29.89S
$$



USA.gov is the U.S. government's official web portal to all federal, state and local government web resources and services.